Location: ???????
(55.3754°N, 39.3545°E)
Time: 07:09:18
(UTC+00:00)

Cosmos 1933 Rocket - Pass Details

Date: 14 April 2026
Orbit: 600 x 622 km, 82.5° (Epoch: 12 May)

Event Time Altitude Azimuth Distance (km) Brightness Sun altitude
Rises 17:30:29 0° 189° (S) 2,872 6.7 -9.1°
Reaches altitude 10° 17:32:41 10° 190° (S) 1,975 5.9 -9.4°
Maximum altitude 17:37:04 89° 108° (ESE) 627 3.6 -9.9°
Drops below altitude 10° 17:41:31 10° 12° (NNE) 2,002 6.5 -10.5°
Sets 17:43:46 0° 13° (NNE) 2,915 7.3 -10.7°
